Regional Weather Roundup
Issued by NWS

Home | Current Version | Previous Version | Graphics & Text | Print | Product List | Glossary On
Versions: 1 2 3 4 5 6 7 8 9 10 11 12 13 14 15 16 17 18 19 20 21 22 23 24 25 26 27 28 29 30 31 32 33 34 35 36 37 38 39 40 41 42 43 44 45 46 47 48 49 50
452
ASUS43 KDMX 212006
RWRIA

WEATHER ROUNDUP FOR IOWA
NATIONAL WEATHER SERVICE DES MOINES IA
300 PM CDT FRI JUL 21 2017

NOTE: "FAIR" INDICATES FEW OR NO CLOUDS BELOW 12,000 FEET WITH NO
SIGNIFICANT WEATHER AND/OR OBSTRUCTIONS TO VISIBILITY.

* - THESE STATIONS ARE NOT NWS STATIONS...THUS NOT UNDER NWS
QUALITY CONTROL.  THEY ALSO DO NOT REPORT WEATHER SUCH
AS PRECIPITATION OR FOG.

IAZ001>003-012>014-020>022-031>034-043>046-212100-
   NORTHWEST IOWA

CITY           SKY/WX    TMP DP  RH WIND       PRES   REMARKS
CARROLL *      PTSUNNY   82  81  94 MISG      29.82S HX  95
CHEROKEE *     CLOUDY    78  74  88 E9        29.82S HX  81
DENISON *      MOSUNNY   88  77  70 S7        29.82S HX 100
ORANGE CITY *  CLOUDY    82  75  78 SE10      29.83S HX  89
SHELDON *      CLOUDY    82  73  74 E13       29.83S HX  88
SIOUX CITY     CLOUDY    88  77  69 E9        29.78F HX 100
SPENCER        CLOUDY    79  72  79 SE10      29.87R HX  82
STORM LAKE *   CLOUDY    75  73  94 SE10G18   29.83R
$$

IAZ055>058-069>071-079>083-090>094-212100-
   SOUTHWEST IOWA

CITY           SKY/WX    TMP DP  RH WIND       PRES   REMARKS
ATLANTIC *     SUNNY     95  77  55 S15G21    29.78F HX 109
AUDUBON *      LGT RAIN  90  79  70 SW7       29.82R HX 105
CLARINDA *     SUNNY     93  81  66 S15G21    29.82F HX 113
COUNCIL BLFS * SUNNY     95  75  52 S14G23    29.78F HX 107
CRESTON *      SUNNY     95  75  52 S21G26    29.83F HX 107
HARLAN  *      CLOUDY    93  79  62 S12       29.82F HX 110
LAMONI         SUNNY     93  77  59 S14       29.85F HX 107
RED OAK *      SUNNY     93  79  62 S17G23    29.79F HX 110
SHENANDOAH *   SUNNY     95  79  59 S16       29.79F HX 112
$$

IAZ047>049-059>061-072>074-084-212100-
   CENTRAL IOWA

CITY           SKY/WX    TMP DP  RH WIND       PRES   REMARKS
AMES           MOSUNNY   85  78  80 E12       29.83F HX  96
ANKENY *       SUNNY     95  77  55 SE13      29.79F HX 109
BOONE *        PTSUNNY   81  75  83 NE16      29.84R HX  86
CHARITON *     SUNNY     97  73  46 S16G25    29.83F HX 107
DES MOINES     MOSUNNY  100  71  39 S16       29.78F HX 108
GRINNELL*      MOSUNNY   86  78  78 NE14      29.85F HX  98
KNOXVILLE *    SUNNY     97  73  46 S15G23    29.80F HX 107
MARSHALLTOWN   MOSUNNY   82  75  79 E13       29.85F HX  89
NEWTON *       SUNNY     90  81  74 E13       29.82F HX 108
PELLA *        SUNNY     97  74  47 S13       29.82F HX 107
$$

IAZ004>006-015-016-023>025-035-036-212100-
   NORTH CENTRAL IOWA

CITY           SKY/WX    TMP DP  RH WIND       PRES   REMARKS
ALGONA *       CLOUDY    75  70  83 SE8G14    29.87R
ESTHERVILLE    CLOUDY    76  72  87 SE13      29.87R
FORT DODGE *   CLOUDY    73  70  88 E16       29.84F
MASON CITY     CLOUDY    71  67  87 SE17G29   29.86F
FOREST CITY *  PTSUNNY   72  68  88 SE14G20   29.86R
WEBSTER CITY * CLOUDY    75  73  94 E12       29.83F
IOWA FALLS *     N/A     78  72  80 E13       29.89F HX  81
$$

IAZ007>011-017>019-026>030-037>042-050>054-066-212100-
   NORTHEAST IOWA

CITY           SKY/WX    TMP DP  RH WIND       PRES   REMARKS
CEDAR RAPIDS   SUNNY     84  78  82 E14       29.85F HX  95
CHARLES CITY * HVY RAIN  70  70 100 SE13      29.90F
CLINTON *      CLOUDY    79  75  87 N14       29.91F HX  83
DECORAH *      CLOUDY    68  68 100 SE9       29.91F
DUBUQUE        CLOUDY    76  69  79 E12       29.91F
MONTICELLO *   MOSUNNY   81  72  74 E10G17    29.88F HX  84
WATERLOO       CLOUDY    76  70  82 E10       29.88F
$$

IAZ064-065-067-068-078-212100-
   EAST CENTRAL IOWA

CITY           SKY/WX    TMP DP  RH WIND       PRES   REMARKS
DAVENPORT      MOSUNNY   88  77  69 SE8       29.89F HX 100
IOWA CITY      PTSUNNY   91  80  70 SE10      29.86F HX 109
MT. PLEASANT * MOSUNNY   94  76  55 SE9       29.86F HX 107
MUSCATINE *    SUNNY     93  79  62 S14G22    29.85F HX 110
QUAD CITIES    SUNNY     91  79  67 SE13G18   29.86F HX 107
$$

IAZ062-063-075>077-085>089-095>099-212100-
   SOUTHEAST IOWA

CITY           SKY/WX    TMP DP  RH WIND       PRES   REMARKS
BURLINGTON     SUNNY     93  79  63 S13G20    29.88F HX 110
FAIRFIELD *    SUNNY     97  72  44 S16       29.84F HX 105
FORT MADISON * SUNNY     93  79  62 S10       29.89F HX 110
KEOKUK *       SUNNY     95  75  52 S9G18     29.87F HX 107
OSKALOOSA *      N/A     97  75  49 SW14      29.82F HX 109
CENTERVILLE *    N/A     93  77  59 S13       29.87F HX 107
OTTUMWA        MOSUNNY   98  75  47 S14G22    29.83F HX 110
WASHINGTON *   SUNNY     93  81  66 S13G23    29.85F HX 113
$$

ABBREVIATIONS USED IN REMARKS
   TC - TEMPERATURES IN CELSIUS
  WCI - WIND CHILL INDEX
   HX - HEAT INDEX
  VSB - VISIBILITY
$$





USA.gov is the U.S. government's official web portal to all federal, state and local government web resources and services.